Regional Weather Roundup
Issued by NWS

Home | Current Version | Previous Version | Text Only | Print | Product List | Glossary Off
Versions: 1 2 3 4 5 6 7 8 9 10 11 12 13 14 15 16 17 18 19 20 21 22 23 24 25 26 27 28 29 30 31 32 33 34 35 36 37 38 39 40 41 42 43 44 45 46 47 48 49 50

931
ASUS43 KLSX 251457
RWRMO

WEATHER SUMMARY FOR MISSOURI
NATIONAL WEATHER SERVICE SPRINGFIELD MO
900 AM CST SUN FEB 25 2018

NOTE: "FAIR" INDICATES FEW OR NO CLOUDS BELOW 12,000 FEET WITH NO
       SIGNIFICANT WEATHER AND/OR OBSTRUCTIONS TO VISIBILITY.
       CURRENT SKY AND/OR WEATHER CONDITIONS ARE NOT AVAILABLE FOR
       CHILLICOTHE AND FARMINGTON.

MOZ001>031-035>038-043-044-053-054-251600-
...NORTHERN AND WESTERN MISSOURI...

CITY           SKY/WX    TMP DP  RH WIND       PRES   REMARKS
KANSAS CTY INT MOSUNNY   32  24  72 SW10      30.03R WCI  24
LEE`S SUMMIT   SUNNY     33  26  75 SW8       30.05R WCI  26
ST JOSEPH      SUNNY     30  25  81 S8        30.02R WCI  22
CHILLICOTHE      N/A     33  23  66 SW6       30.02R WCI  28

$$
MOZ066>068-077>081-088>096-101>105-251600-
...SOUTHWEST MISSOURI...

CITY           SKY/WX    TMP DP  RH WIND       PRES   REMARKS
SPRINGFIELD    SUNNY     39  30  70 CALM      30.08R
JOPLIN         SUNNY     37  36  96 S3        30.11R

$$
MOZ032>034-039>042-045>050-055>058-069>072-251600-
...CENTRAL MISSOURI...

CITY           SKY/WX    TMP DP  RH WIND       PRES   REMARKS
COLUMBIA       NOT AVBL
JEFFERSON CITY SUNNY     36  28  73 SW6       30.08R
ROLLA          SUNNY     35  32  88 SW7       30.08R WCI  29
SEDALIA        SUNNY     34  29  82 SW9       30.08R WCI  27
WARRENSBURG    SUNNY     34  28  80 SW6       30.06R WCI  29

$$
MOZ051-052-059>065-251600-
...EAST CENTRAL MISSOURI...

CITY           SKY/WX    TMP DP  RH WIND       PRES   REMARKS
ST LOUIS INTL  MOSUNNY   39  30  70 W13       30.07R

$$
MOZ072>076-082>087-097>100-106>115-251600-
...SOUTH CENTRAL AND SOUTHEAST MISSOURI...

CITY           SKY/WX    TMP DP  RH WIND       PRES   REMARKS
CAPE GIRARDEAU FAIR      42  32  67 W8        30.14R
POPLAR BLUFF   FAIR      42  33  70 CALM      30.15R
WEST PLAINS    SUNNY     37  34  89 W5        30.12R

$$



USA.gov is the U.S. government's official web portal to all federal, state and local government web resources and services.